RH
52 54 59 62 64 69 68 69 68 68 79 75 76 78 70 69 69 73 76 79 81 80 85 80 84 93 99 99 99 99 100 99 98 80 70 87 90 71 85 94 89 88 69
57 65 65 64 66 67 70 67 67 72 72 73 73 73 72 71 74 82 80 75 78 77 77 78 81 90 97 98 99 99 99 97 73 79 81 91 92 81 74 79 62 58 69
59 61 67 71 74 77 75 72 72 73 73 68 71 74 76 78 78 76 78 75 76 75 75 78 79 87 96 97 98 99 98 94 76 61 80 81 89 69 71 69 73 69 56
56 58 64 66 69 68 72 72 74 77 78 81 76 77 77 74 74 76 74 77 79 78 80 78 77 82 92 94 96 98 96 91 70 60 66 80 78 77 64 68 71 58 63
64 59 63 64 66 69 72 72 73 78 78 76 74 74 75 71 66 93 91 91 90 77 74 74 80 91 96 90 97 97 86 90 60 58 61 63 72 69 74 65 60 77 75
64 63 66 72 74 76 76 77 82 83 82 80 76 77 87 78 98 99 96 80 80 83 90 85 87 91 93 98 96 88 83 80 73 54 56 60 72 65 68 63 89 88 86
68 68 73 77 80 83 82 83 80 78 80 81 86 92 96 96 99 99 98 77 88 91 92 91 88 89 93 88 92 90 90 81 78 70 70 65 73 68 78 95 93 91 89
74 74 79 82 82 84 84 82 83 81 82 88 94 94 94 93 98 99 100 80 81 82 85 87 88 88 92 77 82 86 83 66 79 48 64 65 65 69 71 74 85 96 89
76 80 81 81 83 83 82 84 84 85 88 90 91 91 91 94 98 99 91 76 82 82 83 83 81 84 94 90 81 93 86 74 87 87 84 83 86 82 67 57 69 89 93
76 79 81 81 82 82 83 87 85 85 84 73 84 85 96 90 99 99 91 70 89 90 88 85 91 78 88 88 83 84 80 90 77 67 67 79 78 80 88 65 58 62 77
74 80 82 82 83 82 85 88 85 83 83 83 89 89 87 88 89 98 97 72 75 94 96 93 86 92 89 91 87 92 90 89 84 67 61 58 67 65 59 60 64 57 66
80 81 82 82 74 77 87 86 85 86 83 90 94 94 84 81 97 96 99 97 95 88 97 98 80 94 92 97 88 97 92 82 66 62 58 59 60 59 59 62 71 68 65
84 85 82 81 77 79 82 83 76 81 70 74 84 89 72 65 67 93 96 99 96 79 90 98 96 95 97 92 95 92 91 62 54 56 56 60 56 62 67 72 74 79 80
87 87 87 85 81 73 62 63 62 63 64 64 65 63 58 60 68 77 80 75 90 86 93 93 94 83 93 87 77 73 54 57 68 47 50 52 57 59 60 59 61 62 66
91 86 82 77 76 88 90 85 83 88 71 59 60 56 55 58 77 95 97 90 89 94 95 97 99 97 92 91 80 69 62 63 64 71 68 67 51 52 58 61 59 58 67
96 92 78 77 80 79 82 89 98 96 99 98 99 78 66 92 98 98 100 100 100 100 98 99 99 98 99 97 97 92 84 76 73 72 71 57 57 58 63 62 66 57 67
96 97 96 86 83 83 80 81 92 95 99 99 100 99 99 98 98 98 100 100 98 89 92 98 99 99 99 98 98 98 96 87 86 72 71 68 67 68 78 73 83 57 65
95 98 97 98 97 92 80 78 73 74 74 76 91 89 98 98 95 95 95 89 80 82 87 96 97 97 98 98 99 99 98 97 96 91 76 64 74 87 82 77 82 74 58
97 98 98 98 96 90 81 76 75 75 72 76 75 71 79 100 95 91 86 64 68 75 79 80 90 94 96 97 98 98 99 98 97 96 95 82 70 75 84 87 78 90 88
85 96 94 93 93 93 93 88 82 78 80 75 71 70 64 64 58 60 61 60 59 61 64 72 85 89 93 96 96 97 98 98 98 99 98 97 90 70 66 75 80 78 89
67 73 81 81 80 76 72 70 71 73 70 72 75 80 97 69 71 66 59 60 59 60 64 75 76 82 90 91 93 93 93 95 96 97 98 99 98 97 92 79 88 77 82
66 71 70 69 71 72 73 66 66 66 62 61 62 69 88 66 76 83 83 76 72 76 83 82 85 82 84 89 91 90 88 90 94 97 96 96 98 96 95 93 84 90 85
66 70 73 70 62 74 67 62 61 60 61 66 61 59 70 79 82 83 83 85 75 78 80 84 86 84 81 75 73 86 86 88 95 94 97 97 96 97 97 96 94 93 94
53 54 54 58 58 56 61 65 67 72 64 65 69 74 82 85 83 79 80 79 76 76 82 85 86 82 79 74 72 74 82 87 88 87 87 95 97 97 97 97 94 92 94
56 58 54 59 60 60 66 63 63 64 72 76 82 87 85 79 76 73 70 67 69 78 81 78 73 71 71 72 71 72 84 98 90 92 90 86 93 94 96 97 96 94 94
64 53 54 56 54 54 57 59 62 66 79 82 80 80 76 74 74 73 71 68 68 69 70 70 71 72 70 65 70 88 96 98 88 99 92 92 91 89 95 96 95 97 95
Wind_Speed
15 13 13 12 12 11 10 10 10 8 6 7 7 8 10 10 10 9 8 9 10 9 9 8 10 9 5 5 5 4 4 3 4 3 3 8 6 9 8 4 5 6 7
13 12 13 12 11 11 12 11 10 9 7 7 8 8 9 9 9 9 9 9 10 11 11 10 9 5 9 6 5 3 4 4 3 8 7 3 5 8 9 9 7 6 7
13 13 11 11 11 12 11 10 10 9 8 7 7 8 8 8 8 8 9 11 10 11 12 11 10 7 9 5 5 6 6 3 4 6 7 6 4 8 9 6 6 6 5
13 14 12 13 13 11 10 11 10 9 7 5 6 6 6 7 8 8 10 10 10 10 10 9 9 7 7 7 5 7 7 6 5 7 8 8 8 8 6 7 6 4 5
13 13 13 10 9 9 9 10 9 8 5 4 3 4 5 6 6 9 8 7 7 9 9 9 7 7 2 7 6 9 11 6 6 8 7 9 8 10 8 6 6 6 5
13 13 10 8 9 9 9 9 8 7 5 3 0 4 7 5 11 10 6 5 7 9 10 9 7 6 3 7 9 11 11 11 7 6 7 9 10 10 7 8 5 4 3
11 10 10 10 10 10 10 10 9 7 6 5 5 7 6 6 13 10 4 5 6 7 8 8 6 5 4 7 11 13 6 6 3 8 9 9 11 10 10 4 4 2 3
11 10 10 10 10 11 11 10 8 7 7 6 7 7 6 6 12 10 7 6 6 7 8 7 6 6 5 8 9 9 6 5 3 3 6 7 7 11 11 7 6 4 4
12 11 11 11 12 12 11 10 9 9 8 7 7 7 7 8 13 12 8 6 7 7 7 8 6 7 6 8 9 8 6 5 3 7 7 8 6 8 9 8 6 5 2
12 12 12 12 12 12 11 11 9 9 8 7 7 8 7 8 11 13 10 4 6 6 6 7 9 7 8 8 7 7 7 3 6 7 8 8 8 6 9 6 6 7 3
12 12 12 12 12 11 10 9 9 9 9 8 8 7 8 7 9 10 13 5 5 4 4 4 4 5 7 9 10 6 3 3 5 7 7 7 6 8 7 6 5 4 6
12 12 11 11 9 9 11 8 9 9 9 8 7 5 4 4 9 10 10 8 9 4 4 4 4 6 7 8 7 10 9 7 5 7 7 6 6 6 6 5 4 4 2
11 10 11 10 9 10 11 8 5 5 6 6 4 3 2 3 4 8 8 8 6 3 4 6 6 7 6 6 7 8 9 6 7 8 8 7 5 5 6 6 5 3 3
15 9 10 9 9 8 8 7 5 4 4 4 4 3 2 3 5 6 6 4 4 2 3 3 4 4 2 5 6 5 3 3 4 6 9 9 7 6 6 5 5 6 4
18 13 11 9 11 10 10 8 6 6 5 3 4 3 2 3 4 7 6 4 4 4 4 2 3 1 3 3 4 5 5 5 3 4 1 4 8 8 7 5 5 5 5
13 11 12 9 10 9 8 9 16 13 16 13 11 7 5 5 5 6 6 7 4 2 1 4 4 2 2 3 4 4 4 5 5 3 3 4 4 6 6 6 5 6 5
14 12 11 14 7 10 7 6 5 3 10 9 8 8 9 7 9 9 7 7 12 4 6 5 4 5 5 3 3 4 4 4 5 5 6 5 4 4 4 5 4 6 5
15 15 10 10 11 9 7 5 5 5 4 3 3 7 8 6 8 9 9 1 5 7 5 5 5 5 4 4 4 4 3 3 5 5 6 7 6 5 5 6 6 6 6
14 11 14 11 9 11 11 7 5 2 4 3 4 3 4 1 2 4 5 6 4 5 5 4 4 5 5 6 6 5 5 4 4 5 6 7 7 7 7 5 5 6 3
9 13 12 9 8 8 8 8 7 5 5 1 3 3 3 2 2 4 5 5 4 4 4 5 5 5 5 6 6 6 6 5 6 3 5 5 6 8 9 8 6 7 6
10 10 14 9 8 7 8 7 9 7 5 4 3 3 6 2 4 4 4 5 5 4 4 4 4 4 5 5 6 6 6 6 6 5 6 4 6 6 6 7 6 7 6
8 8 8 9 8 8 9 7 6 6 5 4 2 4 4 4 4 4 4 5 4 4 4 5 4 4 4 4 5 7 7 6 6 6 6 6 6 6 7 7 9 7 8
8 9 8 8 8 11 8 8 6 6 5 3 3 3 5 4 4 4 4 4 4 4 4 5 6 5 5 5 4 5 7 7 6 7 7 7 6 6 7 7 9 8 8
9 9 9 9 8 9 9 9 6 6 5 5 4 4 4 4 4 5 5 4 5 5 5 5 4 6 6 7 4 4 4 5 8 9 12 9 8 8 7 8 8 11 9
10 10 9 9 9 9 10 9 7 7 6 5 4 3 4 4 4 6 5 4 4 4 6 5 5 7 9 11 9 8 4 4 9 9 9 11 12 13 10 7 9 9 11
8 11 9 7 9 8 9 8 7 7 7 5 4 3 4 5 5 6 5 5 5 6 7 5 7 11 12 10 10 12 12 10 9 8 9 9 11 11 8 10 12 9 11
Wind_Direction
211 213 216 218 220 226 227 227 228 237 238 249 258 267 269 276 283 282 286 292 293 294 289 266 271 244 208 211 212 228 115 103 127 142 114 126 138 147 127 133 128 128 136
206 206 213 216 215 219 226 224 224 226 229 245 260 263 270 274 283 290 304 295 294 301 301 299 289 257 226 211 196 160 137 183 165 139 133 121 137 138 140 160 159 157 134
202 203 208 215 213 219 221 220 215 213 223 243 250 265 281 295 305 306 297 301 305 300 301 302 296 269 232 204 190 149 136 152 162 148 131 137 128 142 144 133 160 121 123
202 205 208 214 216 219 219 216 204 204 204 223 253 280 292 303 302 305 309 313 312 309 313 310 303 288 231 205 181 142 139 140 161 140 136 146 145 153 161 147 150 174 138
197 202 211 214 213 213 213 209 192 190 190 179 256 288 310 312 7 329 307 308 314 325 331 337 346 336 251 190 153 151 150 154 171 142 148 154 154 160 176 164 162 165 157
201 205 203 201 203 200 197 180 167 153 142 132 74 352 30 0 343 337 333 337 347 355 350 350 7 6 161 149 146 153 151 154 168 148 156 166 158 156 151 165 149 161 175
202 199 193 189 182 178 172 166 163 155 133 116 77 64 50 13 341 319 341 21 31 26 18 7 13 32 86 122 112 114 127 81 127 151 160 179 163 161 147 135 153 156 143
186 182 172 170 169 168 164 160 148 138 135 118 98 93 70 26 353 350 337 49 42 41 36 26 32 45 40 106 119 116 130 154 134 141 149 168 171 157 156 166 144 120 106
171 169 166 167 161 161 162 155 147 142 137 118 121 108 81 44 8 9 6 28 30 31 37 42 67 72 55 112 111 113 125 127 77 67 83 112 114 144 156 158 162 153 170
168 162 158 159 157 160 158 154 148 141 134 127 112 98 81 64 20 20 6 34 32 14 40 52 49 100 94 81 112 123 133 149 161 145 121 119 140 161 157 191 173 182 164
153 150 151 152 151 148 144 149 146 147 139 133 120 104 81 44 49 20 10 36 21 15 12 25 73 113 96 93 97 96 78 144 156 151 137 142 148 158 173 182 184 240 176
149 145 139 138 140 138 138 144 148 148 144 132 121 107 79 65 30 28 10 9 351 25 11 1 92 124 119 121 121 128 135 148 157 150 156 159 154 167 154 174 171 215 271
128 124 127 123 123 123 121 123 130 144 148 152 127 120 99 38 26 17 6 347 9 24 12 345 131 130 126 94 93 136 163 188 165 159 160 161 170 160 145 162 169 206 200
118 118 119 117 110 107 109 115 127 127 126 135 137 113 65 49 31 6 353 346 9 38 10 55 137 139 107 96 150 175 205 210 251 198 167 154 155 166 185 189 195 188 194
114 144 120 115 94 82 59 60 79 39 19 113 92 66 40 58 28 313 297 338 345 2 317 127 105 138 186 194 209 190 195 192 201 297 219 176 161 171 178 202 212 196 208
136 144 130 123 116 105 94 79 51 53 49 44 41 33 103 59 317 338 20 24 12 294 51 25 45 67 213 209 225 223 213 211 196 209 252 211 202 173 196 191 217 218 205
137 143 119 120 139 111 114 125 116 59 75 48 20 39 39 17 4 10 30 73 24 67 65 43 37 22 7 351 221 226 228 222 209 200 226 230 246 240 202 195 220 216 217
130 143 140 143 131 122 132 157 157 190 144 141 57 30 33 25 26 5 18 119 49 51 55 38 19 18 12 9 5 328 247 226 192 211 228 230 211 220 238 200 199 218 224
158 164 142 138 147 136 137 142 137 133 113 78 294 242 37 360 79 18 31 68 68 64 38 36 22 28 5 355 351 344 346 317 226 207 208 225 221 211 224 224 207 205 246
143 113 112 120 128 130 135 137 137 120 88 136 282 324 347 256 86 60 53 54 53 41 35 22 23 21 1 351 348 342 347 344 351 260 214 209 226 226 226 203 209 195 202
139 136 129 124 131 137 141 153 109 129 144 183 189 32 345 60 53 27 56 54 33 30 24 22 9 355 2 350 343 341 341 338 346 341 355 280 214 213 221 218 196 212 208
134 135 133 134 129 123 112 123 122 130 143 161 156 119 277 80 71 61 40 41 16 15 2 347 0 343 358 354 341 327 323 326 336 353 338 327 330 285 221 210 208 196 197
131 118 110 118 114 119 119 115 137 127 121 131 187 132 87 92 78 56 51 26 9 28 9 0 351 349 355 343 4 338 322 333 346 323 317 315 312 293 312 221 201 193 195
129 129 133 128 129 125 120 117 107 91 137 135 131 110 89 73 72 62 46 26 19 19 5 354 341 335 338 333 351 348 329 342 329 315 316 299 290 289 278 295 215 199 200
124 131 130 136 136 119 118 118 131 126 117 114 102 94 96 91 79 65 51 20 20 26 343 342 331 339 324 323 326 324 353 308 296 303 291 289 276 274 272 267 284 212 199
117 115 122 132 115 120 123 128 128 125 124 125 134 142 104 86 76 64 35 14 356 359 341 349 334 330 322 320 328 335 314 288 285 245 274 270 267 265 250 253 265 246 205